Location: Peebles
(55.6412°N, 3.1714°W)
Time: 11:52:15
(UTC+01:00)

NOAA 16 DEB - Pass Details

Date: 09 July 2022
Orbit: 830 x 847 km, 98.8° (Epoch: 13 August)

Event Time Altitude Azimuth Distance (km) Brightness Sun altitude
Exits shadow 23:52:13 - 201° (SSW) 2,977 ? -10.0°
Reaches altitude 10° 23:53:47 10° 209° (SSW) 2,440 ? -10.1°
Maximum altitude 23:58:25 28° 268° (W) 1,513 ? -10.3°
Drops below altitude 10° 00:03:05 10° 327° (NNW) 2,463 ? -10.5°
Sets 00:05:48 0° 339° (NNW) 3,405 ? -10.6°
